This is the latest recevied weather packets stored in our database for station/object WB4YDL. If no packets are shown the sender has not sent any weather packets the latest 10 day(s).
| Time | Temp. | Humidity | Pressure | Rain* | Wind** | Luminosity | Snow |
|---|---|---|---|---|---|---|---|
| 1778019242 | 17.22° C | 99% | 1002 hPa | 1.27 mm | - | 52 W/m² | - |
| 1778018939 | 17.22° C | 99% | 1002 hPa | 1.78 mm | - | 58 W/m² | - |
| 1778018636 | 17.22° C | 99% | 1002.1 hPa | 1.78 mm | - | 68 W/m² | - |
| 1778018334 | 17.22° C | 99% | 1002.2 hPa | 1.27 mm | - | 52 W/m² | - |
| 1778018032 | 17.22° C | 99% | 1002.1 hPa | 1.27 mm | - | 51 W/m² | - |
| 1778017729 | 17.22° C | 99% | 1002.3 hPa | 1.78 mm | - | 46 W/m² | - |
| 1778017426 | 17.22° C | 99% | 1002.1 hPa | 3.56 mm | - | 42 W/m² | - |
| 1778017124 | 17.22° C | 99% | 1002.1 hPa | 1.78 mm | - | 43 W/m² | - |
| 1778016822 | 17.22° C | 99% | 1002.1 hPa | 1.27 mm | - | 43 W/m² | - |
| 1778016517 | 17.22° C | 99% | 1002.3 hPa | 1.27 mm | - | 50 W/m² | - |
| 1778016214 | 17.22° C | 99% | 1002.4 hPa | 1.78 mm | - | 46 W/m² | - |
| 1778015910 | 17.22° C | 99% | 1002.2 hPa | 3.05 mm | - | 51 W/m² | - |
| 1778015608 | 17.22° C | 99% | 1002.4 hPa | 1.27 mm | - | 59 W/m² | - |
| 1778015305 | 17.22° C | 99% | 1002.2 hPa | 1.78 mm | - | 62 W/m² | - |
| 1778015002 | 17.22° C | 99% | 1002.3 hPa | 3.05 mm | - | 72 W/m² | - |
| 1778014698 | 17.22° C | 99% | 1002.3 hPa | 3.05 mm | - | 74 W/m² | - |
| 1778014397 | 17.22° C | 99% | 1002.4 hPa | 3.05 mm | - | 74 W/m² | - |
| 1778014093 | 17.22° C | 99% | 1002.4 hPa | 1.27 mm | - | 65 W/m² | - |
| 1778013791 | 17.22° C | 99% | 1002.2 hPa | 3.05 mm | - | 76 W/m² | - |
| 1778013488 | 17.22° C | 99% | 1002.2 hPa | 3.05 mm | - | 66 W/m² | - |
| 1778013185 | 17.22° C | 99% | 1002.3 hPa | 3.05 mm | - | 62 W/m² | - |
| 1778012881 | 17.22° C | 99% | 1002.3 hPa | 3.05 mm | - | 61 W/m² | - |
| 1778012577 | 17.22° C | 99% | 1002.6 hPa | 3.05 mm | - | 53 W/m² | - |
| 1778012274 | 17.22° C | 99% | 1002.3 hPa | 1.78 mm | - | 44 W/m² | - |
| 1778011971 | 17.22° C | 99% | 1002.5 hPa | 1.78 mm | - | 40 W/m² | - |
* Rain latest hour (hover to see other rain measurements)
** Current wind speed in m/s (hover to see current wind gust speed)